Weather History for Salem, OR

Change the Weather History Date:

Wednesday, November 12, 2014

  Actual Average Record
Temperature  
Mean Temperature 40 °F 46 °F  
Max Temperature 48 °F 54 °F 67 °F (1976)
Min Temperature 32 °F 39 °F 18 °F (1978)
Degree Days  
Heating Degree Days 25 19  
Month to date heating degree days 182 209  
Since 1 July heating degree days 391 741  
Cooling Degree Days 0 0  
Month to date cooling degree days 0 0  
Year to date cooling degree days 605 290  
Moisture  
Dew Point 15 °F    
Average Humidity 36    
Maximum Humidity 44    
Minimum Humidity 28    
Precipitation  
Precipitation 0.00 in 0.21 in 1.36 in (1965)
Month to date precipitation 0.89 2.28  
Year to date precipitation 30.71 28.59  
Sea Level Pressure  
Sea Level Pressure 30.08 in    
Wind  
Wind Speed 10 mph (NNW)    
Max Wind Speed 17 mph    
Max Gust Speed 20 mph    
Visibility 10 miles    
Events      
T = Trace of Precipitation, MM = Missing Value Source: NWS Daily Summary

Daily Weather History Graph

Daily Weather History Graph

Search for Another Location

Airport:

Trip Planner

Search our weather history database for the weather conditions in past years. The results will help you decide how hot, cold, wet, or windy it might be!

Date:

Astronomy

Nov. 12, 2014 Rise Set
Actual Time 7:05 AM PST 4:46 PM PST
Civil Twilight 6:34 AM PST 5:17 PM PST
Nautical Twilight 5:58 AM PST 5:53 PM PST
Astronomical Twilight 5:24 AM PST 6:27 PM PST
Moon 10:13 PM PST (11/12) 11:53 AM PST (11/12)
Length of Visible Light 10h 43m
Length of Day
9h 40m
Waning Gibbous, 67% of the Moon is Illuminated
Nov 12
Waning Gibbous
Nov 14
Last Quarter
Nov 22
New
Nov 29
First Quarter
Dec 6
Full

Hourly Weather History & Observations

Time (PST) Temp. Windchill Dew Point Humidity Pressure Visibility Wind Dir Wind Speed Gust Speed Precip Events Conditions
12:56 AM 33.1 °F 27.7 °F 12.9 °F 43% 30.14 in 10.0 mi NW 5.8 mph - N/A   Mostly Cloudy
1:56 AM 33.1 °F 26.1 °F 12.9 °F 43% 30.14 in 10.0 mi NNW 8.1 mph - N/A   Clear
2:56 AM 33.1 °F 26.9 °F 12.9 °F 43% 30.14 in 10.0 mi NW 6.9 mph - N/A   Partly Cloudy
3:56 AM 32.0 °F 24.8 °F 12.0 °F 44% 30.14 in 10.0 mi NW 8.1 mph - N/A   Partly Cloudy
4:56 AM 33.1 °F 25.5 °F 12.0 °F 42% 30.14 in 10.0 mi NW 9.2 mph - N/A   Mostly Cloudy
5:56 AM 34.0 °F 27.2 °F 12.0 °F 40% 30.15 in 10.0 mi NW 8.1 mph - N/A   Overcast
6:56 AM 34.0 °F 27.2 °F 12.0 °F 40% 30.15 in 10.0 mi NNW 8.1 mph - N/A   Mostly Cloudy
7:56 AM 34.0 °F 26.0 °F 12.9 °F 42% 30.15 in 10.0 mi NNW 10.4 mph - N/A   Scattered Clouds
8:56 AM 37.0 °F 29.8 °F 12.9 °F 37% 30.16 in 10.0 mi North 10.4 mph - N/A   Clear
9:56 AM 39.9 °F 33.4 °F 14.0 °F 35% 30.15 in 10.0 mi North 10.4 mph - N/A   Scattered Clouds
10:56 AM 43.0 °F 36.4 °F 15.1 °F 32% 30.13 in 10.0 mi North 12.7 mph - N/A   Scattered Clouds
11:56 AM 45.0 °F 38.9 °F 16.0 °F 31% 30.11 in 10.0 mi North 12.7 mph - N/A   Scattered Clouds
12:56 PM 46.0 °F 40.2 °F 16.0 °F 30% 30.09 in 10.0 mi North 12.7 mph - N/A   Clear
1:56 PM 46.0 °F 41.0 °F 16.0 °F 30% 30.07 in 10.0 mi North 10.4 mph - N/A   Clear
2:56 PM 46.9 °F - 16.0 °F 29% 30.06 in 10.0 mi North 13.8 mph - N/A   Clear
3:56 PM 44.1 °F 39.5 °F 18.0 °F 35% 30.06 in 10.0 mi North 8.1 mph - N/A   Clear
4:56 PM 41.0 °F 34.7 °F 17.1 °F 38% 30.04 in 10.0 mi North 10.4 mph - N/A   Clear
5:56 PM 37.9 °F 31.5 °F 17.1 °F 43% 30.02 in 10.0 mi NNW 9.2 mph - N/A   Clear
6:56 PM 37.9 °F 30.9 °F 16.0 °F 41% 30.02 in 10.0 mi NNW 10.4 mph - N/A   Clear
7:56 PM 36.0 °F 29.6 °F 16.0 °F 44% 30.00 in 10.0 mi NNW 8.1 mph - N/A   Scattered Clouds
8:56 PM 37.0 °F 30.4 °F 16.0 °F 42% 29.99 in 10.0 mi NNW 9.2 mph - N/A   Clear
9:56 PM 37.0 °F 29.8 °F 15.1 °F 41% 29.97 in 10.0 mi NNW 10.4 mph - N/A   Clear
10:56 PM 37.0 °F 30.4 °F 15.1 °F 41% 29.97 in 10.0 mi NNW 9.2 mph - N/A   Overcast
11:56 PM 37.9 °F 31.5 °F 15.1 °F 39% 29.97 in 10.0 mi NNW 9.2 mph - N/A   Overcast